STARLINK-33892 (63783 NORAD) Tracking and Keplerian Element Data

This shows tracking and keplerian element data for the satellite.

Feedback or suggestion? Click here.




ElementValue
Catalog63783
NameSTARLINK-33892
Epoch Orbit3667
Epoch Day353.73158069
Epoch Year2025
RAAN144.0913
Inclination43.0014
Eccentricity0.000134
Argument of Perigee275.495
Mean Anonmoly84.5748
Mean Motion15.2757592
Decay Rate0.00014736
L11 63783U 25091J 25353.73158069 .00014736 00000+0 54400-3 0 9997
L22 63783 43.0014 144.0913 0001340 275.4950 84.5748 15.27575920 36674



Live tracking and technical data element details for STARLINK-33892 (NORAD 63783). STARLINK-33892 can be tracked NOW for your location showing map with azimuth and elevation plus other details from your city location.







IsCatalogInMostPopularTable: catalog: 63783, numindb: 9
Update: records affected: 1



GetName: 63783 STARLINK-33892

Hit Count: updated at: Sat, 11 Apr 2026 21:12:38 GMT